Time,TemperatureF,DewpointF,PressureIn,WindDirection,WindDirectionDegrees,WindSpeedMPH,WindSpeedGustMPH,Humidity,HourlyPrecipIn,Conditions,Clouds,dailyrainin,SoftwareType,DateUTC
2014-08-21 00:07:00,72.8,71.0,30.00,East,101,0.0,0.0,95,0.00,,,0.00,weatherlink.com 1.10,2014-08-21 04:07:00,
2014-08-21 00:22:00,72.9,71.0,30.00,East,101,0.0,0.0,95,0.00,,,0.00,weatherlink.com 1.10,2014-08-21 04:22:00,
2014-08-21 00:37:00,73.1,72.0,30.00,East,101,0.0,0.0,96,0.00,,,0.00,weatherlink.com 1.10,2014-08-21 04:37:00,
2014-08-21 00:52:00,73.2,72.0,29.99,East,101,0.0,0.0,96,0.00,,,0.00,weatherlink.com 1.10,2014-08-21 04:52:00,
2014-08-21 01:07:00,73.4,72.0,29.98,East,101,0.0,0.0,96,0.00,,,0.00,weatherlink.com 1.10,2014-08-21 05:07:00,
2014-08-21 01:22:00,73.5,72.0,29.98,East,101,0.0,0.0,96,0.00,,,0.00,weatherlink.com 1.10,2014-08-21 05:22:00,
2014-08-21 01:37:00,73.8,73.0,29.98,East,101,0.0,0.0,97,0.00,,,0.00,weatherlink.com 1.10,2014-08-21 05:37:00,
2014-08-21 01:52:00,74.0,73.0,29.98,East,101,0.0,0.0,97,0.00,,,0.00,weatherlink.com 1.10,2014-08-21 05:52:00,
2014-08-21 02:07:00,73.9,73.0,29.97,East,101,0.0,0.0,97,0.00,,,0.00,weatherlink.com 1.10,2014-08-21 06:07:00,
2014-08-21 02:22:00,73.8,73.0,29.97,East,101,0.0,0.0,97,0.00,,,0.00,weatherlink.com 1.10,2014-08-21 06:22:00,
2014-08-21 02:37:00,73.7,73.0,29.97,East,101,0.0,0.0,97,0.00,,,0.00,weatherlink.com 1.10,2014-08-21 06:37:00,
2014-08-21 02:52:00,73.5,73.0,29.96,East,101,0.0,0.0,97,0.00,,,0.00,weatherlink.com 1.10,2014-08-21 06:52:00,
2014-08-21 03:07:00,73.5,73.0,29.96,East,101,0.0,0.0,97,0.00,,,0.00,weatherlink.com 1.10,2014-08-21 07:07:00,
2014-08-21 03:22:00,73.5,73.0,29.95,East,101,0.0,0.0,97,0.00,,,0.00,weatherlink.com 1.10,2014-08-21 07:22:00,
2014-08-21 03:37:00,73.5,73.0,29.95,East,101,0.0,0.0,97,0.00,,,0.00,weatherlink.com 1.10,2014-08-21 07:37:00,
2014-08-21 03:52:00,73.5,73.0,29.96,East,101,0.0,0.0,97,0.00,,,0.00,weatherlink.com 1.10,2014-08-21 07:52:00,
2014-08-21 04:07:00,73.6,73.0,29.96,East,101,0.0,0.0,97,0.00,,,0.00,weatherlink.com 1.10,2014-08-21 08:07:00,
2014-08-21 04:22:00,73.6,73.0,29.97,East,101,0.0,0.0,97,0.00,,,0.00,weatherlink.com 1.10,2014-08-21 08:22:00,
2014-08-21 04:37:00,73.7,73.0,29.97,East,101,0.0,0.0,98,0.00,,,0.00,weatherlink.com 1.10,2014-08-21 08:37:00,
2014-08-21 04:52:00,73.6,73.0,29.97,East,101,0.0,0.0,98,0.00,,,0.00,weatherlink.com 1.10,2014-08-21 08:52:00,
2014-08-21 05:07:00,73.5,73.0,29.98,East,101,0.0,0.0,97,0.00,,,0.00,weatherlink.com 1.10,2014-08-21 09:07:00,
2014-08-21 05:22:00,73.3,72.0,29.97,East,101,0.0,0.0,97,0.00,,,0.00,weatherlink.com 1.10,2014-08-21 09:22:00,
2014-08-21 05:37:00,73.1,72.0,29.98,East,101,0.0,0.0,97,0.00,,,0.00,weatherlink.com 1.10,2014-08-21 09:37:00,
2014-08-21 05:52:00,73.1,73.0,29.99,East,101,0.0,0.0,98,0.00,,,0.00,weatherlink.com 1.10,2014-08-21 09:52:00,
2014-08-21 06:07:00,73.1,73.0,29.99,East,101,0.0,0.0,98,0.00,,,0.00,weatherlink.com 1.10,2014-08-21 10:07:00,
2014-08-21 06:22:00,73.1,73.0,30.00,East,101,0.0,0.0,98,0.00,,,0.00,weatherlink.com 1.10,2014-08-21 10:22:00,
2014-08-21 06:38:00,73.1,73.0,30.00,East,101,0.0,0.0,98,0.00,,,0.00,weatherlink.com 1.10,2014-08-21 10:38:00,
2014-08-21 06:52:00,73.1,73.0,30.01,East,101,0.0,0.0,98,0.00,,,0.00,weatherlink.com 1.10,2014-08-21 10:52:00,
2014-08-21 07:07:00,73.1,73.0,30.02,East,101,0.0,0.0,98,0.00,,,0.00,weatherlink.com 1.10,2014-08-21 11:07:00,
2014-08-21 07:22:00,73.1,73.0,30.02,East,101,0.0,0.0,98,0.00,,,0.00,weatherlink.com 1.10,2014-08-21 11:22:00,
2014-08-21 07:37:00,73.3,73.0,30.02,East,101,0.0,0.0,98,0.00,,,0.00,weatherlink.com 1.10,2014-08-21 11:37:00,
2014-08-21 07:53:00,73.6,73.0,30.03,East,101,0.0,0.0,98,0.00,,,0.00,weatherlink.com 1.10,2014-08-21 11:53:00,
2014-08-21 08:08:00,73.8,73.0,30.04,West,275,0.0,3.0,98,0.00,,,0.00,weatherlink.com 1.10,2014-08-21 12:08:00,
2014-08-21 08:23:00,74.1,74.0,30.04,West,281,0.0,3.0,98,0.00,,,0.00,weatherlink.com 1.10,2014-08-21 12:23:00,
2014-08-21 08:38:00,74.5,74.0,30.04,West,274,0.0,1.0,97,0.00,,,0.00,weatherlink.com 1.10,2014-08-21 12:38:00,
2014-08-21 08:53:00,75.3,74.0,30.04,West,274,0.0,1.0,95,0.00,,,0.00,weatherlink.com 1.10,2014-08-21 12:53:00,
2014-08-21 09:08:00,76.1,74.0,30.04,West,274,0.0,0.0,94,0.00,,,0.00,weatherlink.com 1.10,2014-08-21 13:08:00,
2014-08-21 09:23:00,77.0,74.0,30.04,West,273,0.0,1.0,91,0.00,,,0.00,weatherlink.com 1.10,2014-08-21 13:23:00,
2014-08-21 09:38:00,78.0,74.0,30.04,West,273,0.0,0.0,88,0.00,,,0.00,weatherlink.com 1.10,2014-08-21 13:38:00,
2014-08-21 09:53:00,78.9,74.0,30.04,West,273,0.0,1.0,85,0.00,,,0.00,weatherlink.com 1.10,2014-08-21 13:53:00,
2014-08-21 10:08:00,79.6,75.0,30.05,West,270,0.0,0.0,85,0.00,,,0.00,weatherlink.com 1.10,2014-08-21 14:08:00,
2014-08-21 10:23:00,80.2,75.0,30.04,WNW,285,0.0,2.0,83,0.00,,,0.00,weatherlink.com 1.10,2014-08-21 14:23:00,
2014-08-21 10:38:00,80.9,75.0,30.05,West,270,0.0,2.0,82,0.00,,,0.00,weatherlink.com 1.10,2014-08-21 14:38:00,
2014-08-21 10:53:00,81.8,76.0,30.04,West,270,0.0,1.0,81,0.00,,,0.00,weatherlink.com 1.10,2014-08-21 14:53:00,
2014-08-21 11:08:00,82.4,75.0,30.05,WNW,297,0.0,3.0,77,0.00,,,0.00,weatherlink.com 1.10,2014-08-21 15:08:00,
2014-08-21 11:23:00,82.9,75.0,30.05,SW,215,0.0,1.0,77,0.00,,,0.00,weatherlink.com 1.10,2014-08-21 15:23:00,
2014-08-21 11:38:00,83.3,75.0,30.04,East,92,0.0,1.0,77,0.00,,,0.00,weatherlink.com 1.10,2014-08-21 15:38:00,
2014-08-21 11:53:00,83.5,75.0,30.04,West,273,0.0,2.0,75,0.00,,,0.00,weatherlink.com 1.10,2014-08-21 15:53:00,
2014-08-21 12:08:00,84.0,75.0,30.04,ENE,71,0.0,0.0,75,0.00,,,0.00,weatherlink.com 1.10,2014-08-21 16:08:00,
2014-08-21 12:23:00,84.3,74.0,30.04,West,275,0.0,2.0,71,0.00,,,0.00,weatherlink.com 1.10,2014-08-21 16:23:00,
2014-08-21 12:38:00,84.7,75.0,30.04,West,275,0.0,2.0,72,0.00,,,0.00,weatherlink.com 1.10,2014-08-21 16:38:00,
2014-08-21 12:53:00,85.1,74.0,30.03,West,277,0.0,1.0,70,0.00,,,0.00,weatherlink.com 1.10,2014-08-21 16:53:00,
2014-08-21 13:08:00,85.5,73.0,30.04,West,270,0.0,3.0,66,0.00,,,0.00,weatherlink.com 1.10,2014-08-21 17:08:00,
2014-08-21 13:23:00,85.8,75.0,30.03,West,270,0.0,1.0,70,0.00,,,0.00,weatherlink.com 1.10,2014-08-21 17:23:00,
2014-08-21 13:38:00,86.1,73.0,30.04,WNW,302,0.0,1.0,65,0.00,,,0.00,weatherlink.com 1.10,2014-08-21 17:38:00,
2014-08-21 13:53:00,86.3,74.0,30.04,WNW,300,0.0,1.0,67,0.00,,,0.00,weatherlink.com 1.10,2014-08-21 17:53:00,
2014-08-21 14:08:00,86.3,76.0,30.04,WNW,300,0.0,1.0,71,0.00,,,0.00,weatherlink.com 1.10,2014-08-21 18:08:00,
2014-08-21 14:23:00,86.1,74.0,30.04,WNW,302,0.0,1.0,67,0.00,,,0.00,weatherlink.com 1.10,2014-08-21 18:23:00,
2014-08-21 14:38:00,86.2,73.0,30.03,West,264,0.0,2.0,64,0.00,,,0.00,weatherlink.com 1.10,2014-08-21 18:38:00,
2014-08-21 14:53:00,86.0,76.0,30.02,West,264,0.0,1.0,71,0.00,,,0.00,weatherlink.com 1.10,2014-08-21 18:53:00,
2014-08-21 15:08:00,86.2,74.0,30.01,West,269,0.0,1.0,68,0.00,,,0.00,weatherlink.com 1.10,2014-08-21 19:08:00,
2014-08-21 15:23:00,86.1,74.0,30.01,West,269,0.0,1.0,67,0.00,,,0.00,weatherlink.com 1.10,2014-08-21 19:23:00,
2014-08-21 15:38:00,86.3,76.0,30.00,West,269,0.0,0.0,72,0.00,,,0.00,weatherlink.com 1.10,2014-08-21 19:38:00,
2014-08-21 15:53:00,86.0,76.0,30.01,West,269,0.0,1.0,71,0.00,,,0.00,weatherlink.com 1.10,2014-08-21 19:53:00,
2014-08-21 16:08:00,86.2,74.0,30.00,West,271,0.0,1.0,67,0.00,,,0.00,weatherlink.com 1.10,2014-08-21 20:08:00,
2014-08-21 16:23:00,85.9,74.0,30.00,West,272,0.0,2.0,67,0.00,,,0.00,weatherlink.com 1.10,2014-08-21 20:23:00,
2014-08-21 16:38:00,85.9,75.0,30.00,West,272,0.0,1.0,70,0.00,,,0.00,weatherlink.com 1.10,2014-08-21 20:38:00,